Regional Weather Roundup
Issued by NWS Kansas City/Pleasant Hill, MO

Home | Current Version | Previous Version | Text Only | Print | Product List | Glossary On
Versions: 1 2 3 4 5 6 7 8 9 10 11 12 13 14 15 16 17 18 19 20 21 22 23 24 25 26 27 28 29 30 31 32 33 34 35 36 37 38 39 40 41 42 43 44 45 46 47 48 49 50
294
ASUS43 KEAX 292010
RWREAX

WEATHER ROUNDUP FOR EASTERN KANSAS AND NORTHWEST MISSOURI
NATIONAL WEATHER SERVICE KANSAS CITY/PLEASANT HILL MO
300 PM CDT FRI APR 29 2016

KSZ040-057-103>105-MOZ028-029-037-043-292100-
...KANSAS CITY METROPOLITAN AREA...

CITY           SKY/WX    TMP DP  RH WIND       PRES   REMARKS
K.C. INTL      CLOUDY    55  47  74 NE14      29.95F
K.C. DOWNTOWN  CLOUDY    56  48  74 E18       29.94F
LEES SUMMIT    CLOUDY    55  48  77 NE16      29.94F
OLATHE - IXD   CLOUDY    58  48  69 NE15G24   29.92F
OLATHE - OJC   CLOUDY    57  48  72 NE15G23   29.92F
LAWRENCE       CLOUDY    56  48  74 E15G21    29.92F

$$

MOZ001>008-011>017-020>025-030>033-038>040-044>046-053-054-292100-
...NORTHERN AND CENTRAL MISSOURI...

CITY           SKY/WX    TMP DP  RH WIND       PRES   REMARKS
ST. JOSEPH     CLOUDY    54  46  74 E9        29.98F
MOSBY          CLOUDY    54  46  76 E9        29.98F
WARRENSBURG    CLOUDY    57  50  77 NE13      29.97R
WHITEMAN AFB   CLOUDY    60  53  78 NE13G20   29.95S
CLINTON        PTSUNNY   64  54  68 E13       29.92F
SEDALIA        CLOUDY    62  52  69 E13       29.97F
WARSAW         NOT AVBL
CHILLICOTHE      N/A     56  47  71 NE10      30.02F
KIRKSVILLE     NOT AVBL

$$

MOZ041-047>049-056>058-063>065-088>090-097-292100-
...EASTERN AND SOUTHERN MISSOURI...

CITY           SKY/WX    TMP DP  RH WIND       PRES   REMARKS
ST. LOUIS INTL CLOUDY    64  50  60 E7        30.03S
SPIRIT OF STL  CLOUDY    64  51  62 E9        30.01F
COLUMBIA       CLOUDY    63  52  67 E14       29.98F
JEFFERSON CITY CLOUDY    62  50  64 E12       29.98F
ROLLA          LGT RAIN  59  52  77 E10       29.97F
OSAGE BEACH    CLOUDY    63  46  55 E10G16    29.95F
SPRINGFIELD    CLOUDY    64  54  69 E18       29.87F
BRANSON        CLOUDY    57  55  94 E14G21    29.88F
JOPLIN         CLOUDY    65  55  70 E21G29    29.81S
WEST PLAINS    CLOUDY    59  54  83 E13       29.93F

$$

IAZ060-094-KSZ022-034>040-054-083-096-NEZ052-066-093-292100-
...KANSAS...SOUTHEAST NEBRASKA AND IOWA...

CITY           SKY/WX    TMP DP  RH WIND       PRES   REMARKS
TOPEKA         LGT RAIN  54  47  77 NE12      29.94F
MANHATTAN      LGT RAIN  49  44  83 NE12      29.94F
EMPORIA        RAIN      52  49  89 NE22      29.81F FOG
CHANUTE        CLOUDY    63  52  67 NE16G22   29.81F
WICHITA        TSTM      50  46  86 N21G35    29.82R FOG
OMAHA          CLOUDY    48  41  76 NE14      30.05F
LINCOLN        CLOUDY    48  40  73 NE13      30.05F
FALLS CITY     CLOUDY    52  45  77 NE13      29.99F
LAMONI         CLOUDY    51  44  77 E10G17    30.03F
DES MOINES     CLOUDY    50  41  71 NE9       30.08F

$$





USA.gov is the U.S. government's official web portal to all federal, state and local government web resources and services.